Location: Hohenfelde
(53.8441°N, 9.6220°E)
Time: 12:18:31
(UTC+00:00)

Cosmos 2100 Rocket - Pass Details

Date: 14 July 2020
Orbit: 955 x 1002 km, 82.9° (Epoch: 12 August)

Event Time Altitude Azimuth Distance (km) Brightness Sun altitude
Exits shadow 00:45:05 16° 182° (S) 2,345 5.4 -12.7°
Maximum altitude 00:50:18 80° 98° (E) 999 4.1 -12.4°
Drops below altitude 10° 00:56:32 10° 13° (NNE) 2,723 7.8 -12.1°
Sets 00:59:02 0° 12° (NNE) 3,668 8.9 -12.0°
